Weather History for Panama City Tyndall AFB, FL

Change the Weather History Date:

Tuesday, September 4, 2012

  Actual Average Record
Temperature  
Mean Temperature 76 °F -  
Max Temperature 81 °F 86 °F 93 °F (2002)
Min Temperature 71 °F 72 °F 71 °F (1998)
Cooling Degree Days 11    
Growing Degree Days 26 (Base 50)    
Moisture  
Dew Point 76 °F    
Average Humidity 100    
Maximum Humidity 100    
Minimum Humidity 97    
Precipitation  
Precipitation 1.52 in - - ()
Sea Level Pressure  
Sea Level Pressure 29.99 in    
Wind  
Wind Speed 7 mph (ESE)    
Max Wind Speed 14 mph    
Max Gust Speed 20 mph    
Visibility 6 miles    
Events Fog , Rain , Thunderstorm    
Averages and records for this station are not official NWS values.
T = Trace of Precipitation, MM = Missing Value Source: NWS Daily Summary

Daily Weather History Graph

Daily Weather History Graph

Search for Another Location

Airport:

Trip Planner

Search our weather history database for the weather conditions in past years. The results will help you decide how hot, cold, wet, or windy it might be!

Date:

Astronomy

Sep. 04, 2012 Rise Set
Actual Time 6:21 AM CDT 7:00 PM CDT
Civil Twilight 5:56 AM CDT 7:24 PM CDT
Nautical Twilight 5:28 AM CDT 7:53 PM CDT
Astronomical Twilight 4:59 AM CDT 8:22 PM CDT
Moon 9:17 PM CDT (9/4) 10:04 AM CDT (9/4)
Length of Visible Light 13h 27m
Length of Day
12h 39m
Waning Gibbous, 83% of the Moon is Illuminated
Sep 4
Waning Gibbous
Sep 8
Last Quarter
Sep 15
New
Sep 22
First Quarter
Sep 29
Full

Hourly Weather History & Observations

Time (CDT) Temp. Heat Index Dew Point Humidity Pressure Visibility Wind Dir Wind Speed Gust Speed Precip Events Conditions
12:55 AM 80.8 °F 90.0 °F 80.8 °F 100% 29.99 in 10.0 mi SW 6.9 mph - N/A   Scattered Clouds
1:55 AM 81.0 °F 90.2 °F 80.2 °F 98% 29.99 in 10.0 mi SW 6.9 mph - N/A   Scattered Clouds
2:55 AM 80.8 °F 89.7 °F 80.4 °F 99% 29.98 in 10.0 mi SW 8.1 mph - N/A   Clear
3:55 AM 81.0 °F 89.9 °F 80.1 °F 97% 29.97 in 10.0 mi SW 11.5 mph - N/A   Clear
4:55 AM 81.1 °F 90.5 °F 80.2 °F 97% 29.97 in 10.0 mi SW 10.4 mph - N/A   Partly Cloudy
5:55 AM 81.1 °F 91.0 °F 80.8 °F 99% 29.97 in 10.0 mi SW 10.4 mph - N/A   Partly Cloudy
6:55 AM 81.3 °F 91.4 °F 80.8 °F 98% 29.99 in 10.0 mi WSW 9.2 mph - N/A   Scattered Clouds
6:57 AM 80.6 °F 89.3 °F 80.6 °F 100% 29.99 in 10.0 mi WSW 11.5 mph - N/A Rain Light Rain
7:07 AM 80.6 °F 89.3 °F 80.6 °F 100% 29.99 in 10.0 mi WSW 10.4 mph - N/A   Partly Cloudy
7:42 AM 80.6 °F 89.3 °F 80.6 °F 100% 29.99 in 10.0 mi WSW 6.9 mph - N/A   Mostly Cloudy
7:43 AM 80.6 °F 89.3 °F 80.6 °F 100% 29.97 in 10.0 mi WSW 8.1 mph - N/A   Mostly Cloudy
7:51 AM 80.6 °F 89.3 °F 80.6 °F 100% 29.99 in 10.0 mi Calm Calm - N/A   Mostly Cloudy
7:55 AM 81.0 °F 90.6 °F 81.0 °F 100% 30.00 in 9.0 mi NNE 9.2 mph - 0.00 in   Mostly Cloudy
8:05 AM 77.0 °F - 77.0 °F 100% 30.00 in 10.0 mi NNE 12.7 mph - N/A   Light Drizzle
8:12 AM 75.2 °F - 75.2 °F 100% 30.00 in 10.0 mi NE 9.2 mph - N/A   Light Drizzle
8:13 AM 75.2 °F - 75.2 °F 100% 30.00 in 10.0 mi NE 11.5 mph 18.4 mph N/A   Overcast
8:20 AM 75.2 °F - 75.2 °F 100% 30.00 in 10.0 mi NE 13.8 mph 19.6 mph N/A   Overcast
8:27 AM 75.2 °F - 75.2 °F 100% 30.00 in 10.0 mi NNE 13.8 mph - N/A   Overcast
8:30 AM 75.2 °F - 75.2 °F 100% 30.00 in 10.0 mi NE 11.5 mph - N/A Rain Light Rain
8:50 AM 73.4 °F - 73.4 °F 100% 30.01 in 0.8 mi NE 10.4 mph - N/A Rain Rain
8:51 AM 73.4 °F - 73.4 °F 100% 30.00 in 1.0 mi NE 9.2 mph - N/A Rain Light Rain
8:55 AM 73.4 °F - 73.4 °F 100% 30.00 in 1.0 mi NE 9.2 mph - 0.19 in Rain Heavy Rain
9:03 AM 73.4 °F - 73.4 °F 100% 30.00 in 2.0 mi NNE 8.1 mph - N/A Rain Light Rain
9:07 AM 73.4 °F - 73.4 °F 100% 30.01 in 2.5 mi ENE 8.1 mph - N/A Rain Light Rain
9:16 AM 73.4 °F - 73.4 °F 100% 30.00 in 2.0 mi ENE 6.9 mph - N/A Rain Heavy Rain
9:17 AM 73.4 °F - 73.4 °F 100% 30.00 in 2.0 mi ENE 6.9 mph - N/A Rain Heavy Rain
9:20 AM 73.4 °F - 73.4 °F 100% 30.01 in 3.0 mi East 9.2 mph - N/A Rain Heavy Rain
9:23 AM 73.4 °F - 73.4 °F 100% 30.01 in 5.0 mi East 9.2 mph - N/A Rain Rain
9:30 AM 73.4 °F - 73.4 °F 100% 30.01 in 4.0 mi ENE 6.9 mph - N/A Rain Rain
9:36 AM 73.4 °F - 73.4 °F 100% 30.01 in 3.0 mi East 5.8 mph - N/A Rain Rain
9:40 AM 73.4 °F - 73.4 °F 100% 30.01 in 1.5 mi East 5.8 mph - N/A Rain Rain
9:46 AM 73.4 °F - 73.4 °F 100% 30.01 in 1.8 mi East 5.8 mph - N/A Rain Heavy Rain
9:55 AM 73.4 °F - 73.4 °F 100% 30.01 in 0.5 mi Variable 3.5 mph - N/A Fog , Rain Heavy Rain
9:59 AM 73.4 °F - 73.4 °F 100% 30.02 in 0.8 mi East 3.5 mph - N/A Rain Heavy Rain
10:02 AM 73.4 °F - 73.4 °F 100% 30.02 in 1.2 mi East 3.5 mph - N/A Rain Heavy Rain
10:04 AM 73.4 °F - 73.4 °F 100% 30.02 in 0.8 mi East 5.8 mph - N/A Rain Heavy Rain
10:12 AM 73.4 °F - 73.4 °F 100% 30.02 in 1.0 mi Calm Calm - N/A Rain Heavy Rain
10:13 AM 73.4 °F - 73.4 °F 100% 30.02 in 1.2 mi Calm Calm - N/A Rain Heavy Rain
10:21 AM 73.4 °F - 73.4 °F 100% 30.02 in 0.5 mi North 6.9 mph - N/A Fog , Rain Rain
10:22 AM 73.4 °F - 73.4 °F 100% 30.00 in 0.5 mi NNE 4.6 mph - N/A Fog , Rain Rain
10:24 AM 73.4 °F - 73.4 °F 100% 30.02 in 0.5 mi NE 4.6 mph - N/A Fog , Rain Heavy Rain
10:28 AM 73.4 °F - 73.4 °F 100% 30.02 in 0.8 mi NE 4.6 mph - N/A Rain Heavy Rain
10:31 AM 73.4 °F - 73.4 °F 100% 30.02 in 1.5 mi NE 5.8 mph - N/A Rain Heavy Rain
10:34 AM 73.4 °F - 73.4 °F 100% 30.02 in 2.5 mi North 6.9 mph - N/A Rain , Thunderstorm Heavy Thunderstorms and Rain
10:35 AM 73.4 °F - 73.4 °F 100% 30.02 in 1.5 mi North 6.9 mph - N/A Rain , Thunderstorm Heavy Thunderstorms and Rain
10:38 AM 73.4 °F - 73.4 °F 100% 30.03 in 1.5 mi North 8.1 mph - N/A Rain , Thunderstorm Heavy Thunderstorms and Rain
10:42 AM 73.4 °F - 73.4 °F 100% 30.03 in 1.2 mi North 8.1 mph - N/A Rain , Thunderstorm Heavy Thunderstorms and Rain
10:51 AM 73.4 °F - 73.4 °F 100% 30.03 in 0.8 mi Calm Calm - N/A Rain , Thunderstorm Heavy Thunderstorms and Rain
10:53 AM 73.4 °F - 73.4 °F 100% 30.03 in 0.2 mi Calm Calm - N/A Fog , Rain , Thunderstorm Heavy Thunderstorms and Rain
10:55 AM 73.8 °F - 73.8 °F 100% 30.02 in 0.2 mi North 6.9 mph - 0.99 in Fog , Rain , Thunderstorm Heavy Thunderstorms and Rain
10:58 AM 73.4 °F - 73.4 °F 100% 30.03 in 0.2 mi Calm Calm - N/A Fog , Rain , Thunderstorm Heavy Thunderstorms and Rain
11:11 AM 71.6 °F - 71.6 °F 100% 30.03 in 2.5 mi NNE 4.6 mph - N/A Rain , Thunderstorm Thunderstorms and Rain
11:13 AM 71.6 °F - 71.6 °F 100% 30.04 in 3.0 mi NNE 3.5 mph - N/A Rain , Thunderstorm Thunderstorms and Rain
11:15 AM 71.6 °F - 71.6 °F 100% 30.04 in 4.0 mi Calm Calm - N/A Rain , Thunderstorm Light Thunderstorms and Rain
11:17 AM 71.6 °F - 71.6 °F 100% 30.04 in 6.0 mi Calm Calm - N/A Rain , Thunderstorm Light Rain
11:20 AM 71.6 °F - 71.6 °F 100% 30.04 in 7.0 mi East 3.5 mph - N/A Rain , Thunderstorm Light Rain
11:25 AM 71.6 °F - 71.6 °F 100% 30.04 in 7.0 mi ESE 5.8 mph - N/A Rain , Thunderstorm Light Thunderstorms and Rain
11:29 AM 73.4 °F - 73.4 °F 100% 30.04 in 6.0 mi ESE 4.6 mph - N/A Rain , Thunderstorm Thunderstorms and Rain
11:42 AM 73.4 °F - 73.4 °F 100% 30.04 in 3.0 mi Calm Calm - N/A Rain Rain
11:50 AM 73.4 °F - 73.4 °F 100% 30.04 in 5.0 mi SE 5.8 mph - N/A Rain Rain
11:55 AM 72.7 °F - 72.7 °F 100% 30.04 in 8.0 mi SE 5.8 mph - 0.27 in Rain Light Rain
12:08 PM 73.4 °F - 73.4 °F 100% 30.03 in 9.0 mi ESE 3.5 mph - N/A Rain Light Rain
12:20 PM 73.4 °F - 73.4 °F 100% 30.02 in 10.0 mi East 3.5 mph - N/A Rain Light Rain
12:45 PM 73.4 °F - 73.4 °F 100% 30.01 in 10.0 mi Calm Calm - N/A   Mostly Cloudy
12:55 PM 74.1 °F - 74.1 °F 100% 30.01 in 10.0 mi Calm Calm - 0.01 in Rain Light Rain
1:50 PM 75.2 °F - 75.2 °F 100% 29.99 in 10.0 mi Calm Calm - N/A   Clear
1:55 PM 75.2 °F - 75.2 °F 100% 29.98 in 10.0 mi Calm Calm - 0.02 in   Clear
2:55 PM 76.1 °F - 76.1 °F 100% 29.95 in 10.0 mi Calm Calm - N/A   Partly Cloudy
3:55 PM 78.3 °F - 78.3 °F 100% 29.95 in 10.0 mi South 8.1 mph - N/A   Partly Cloudy
4:10 PM 78.8 °F - 78.8 °F 100% 29.95 in 10.0 mi South 4.6 mph - N/A   Light Drizzle
4:55 PM 77.4 °F - 77.4 °F 100% 29.95 in 10.0 mi SSW 8.1 mph - 0.02 in Rain Light Rain
5:41 PM 77.0 °F - 77.0 °F 100% 29.95 in 10.0 mi SW 6.9 mph - N/A   Clear
5:46 PM 77.0 °F - 77.0 °F 100% 29.95 in 10.0 mi SW 6.9 mph - N/A   Light Drizzle
5:55 PM 77.7 °F - 77.7 °F 100% 29.94 in 10.0 mi SW 5.8 mph - 0.00 in   Light Drizzle
5:59 PM 77.0 °F - 77.0 °F 100% 29.94 in 10.0 mi SW 5.8 mph - N/A   Partly Cloudy
6:55 PM 76.6 °F - 76.6 °F 100% 29.93 in 10.0 mi SSW 6.9 mph - 0.00 in Rain Light Rain
7:33 PM 77.0 °F - 77.0 °F 100% 29.92 in 10.0 mi South 6.9 mph - N/A   Clear
7:55 PM 76.3 °F - 76.3 °F 100% 29.92 in 10.0 mi SSW 6.9 mph - 0.01 in   Scattered Clouds
8:55 PM 77.9 °F - 77.9 °F 100% 29.93 in 10.0 mi SSW 6.9 mph - N/A   Overcast
9:55 PM 78.1 °F - 78.1 °F 100% 29.95 in 10.0 mi South 8.1 mph - N/A   Mostly Cloudy
10:12 PM 78.8 °F - 78.8 °F 100% 29.95 in 10.0 mi South 11.5 mph - N/A   Mostly Cloudy
10:43 PM 78.8 °F - 78.8 °F 100% 29.94 in 10.0 mi South 9.2 mph - N/A   Mostly Cloudy
10:55 PM 78.6 °F - 78.6 °F 100% 29.94 in 10.0 mi South 6.9 mph - N/A   Mostly Cloudy
11:02 PM 78.8 °F - 78.8 °F 100% 29.94 in 10.0 mi South 8.1 mph - N/A   Mostly Cloudy
11:05 PM 78.8 °F - 78.8 °F 100% 29.94 in 10.0 mi South 8.1 mph - N/A   Mostly Cloudy
11:27 PM 78.8 °F - 78.8 °F 100% 29.94 in 10.0 mi South 11.5 mph - N/A   Mostly Cloudy
11:36 PM 78.8 °F - 78.8 °F 100% 29.93 in 10.0 mi South 12.7 mph - N/A Rain Rain
11:47 PM 78.8 °F - 78.8 °F 100% 29.92 in 10.0 mi SSE 12.7 mph - N/A   Overcast
11:50 PM 78.8 °F - 78.8 °F 100% 29.92 in 10.0 mi SSE 11.5 mph - N/A   Overcast
11:55 PM 77.7 °F - 77.7 °F 100% 29.92 in 10.0 mi SSE 11.5 mph - 0.01 in   Mostly Cloudy